Temp
-8 -8 -8 -8 -8 -8 -8 -9 -10 -10 -10 -10 -10 -9 -9 -9 -10 -10 -9 -9 -9 -10 -10 -10 -10 -10 -10 -10 -11 -11 -11 -11 -11 -11 -11 -11 -11 -11 -11 -11 -11 -11 -11 -10 -10 -9 -9 -9 -9
-8 -8 -8 -8 -9 -8 -9 -9 -8 -10 -11 -10 -10 -10 -10 -10 -10 -10 -10 -10 -10 -10 -10 -10 -10 -10 -11 -11 -11 -11 -11 -11 -11 -11 -11 -12 -11 -11 -11 -11 -11 -11 -11 -10 -10 -10 -9 -9 -9
-8 -8 -9 -9 -9 -9 -10 -9 -11 -12 -11 -10 -10 -9 -9 -9 -9 -9 -10 -10 -10 -10 -10 -11 -11 -11 -11 -11 -11 -11 -11 -11 -11 -11 -12 -12 -12 -12 -12 -11 -12 -11 -11 -11 -10 -10 -10 -10 -10
-8 -8 -9 -9 -9 -9 -10 -9 -12 -11 -10 -9 -10 -10 -9 -10 -10 -10 -10 -10 -10 -11 -11 -11 -11 -11 -12 -12 -12 -11 -11 -11 -11 -11 -11 -11 -12 -12 -11 -11 -11 -11 -11 -11 -10 -10 -10 -10 -10
-8 -9 -9 -9 -9 -10 -11 -12 -12 -12 -11 -10 -10 -10 -10 -10 -10 -10 -10 -11 -11 -11 -12 -12 -12 -12 -12 -12 -11 -11 -11 -12 -11 -11 -11 -11 -11 -11 -11 -11 -11 -11 -11 -10 -10 -10 -10 -10 -10
-9 -9 -9 -9 -9 -10 -9 -12 -12 -12 -12 -10 -10 -10 -10 -10 -10 -10 -11 -11 -12 -12 -12 -12 -12 -12 -12 -11 -11 -11 -11 -11 -11 -11 -11 -11 -11 -11 -11 -11 -11 -11 -11 -11 -11 -10 -10 -10 -10
-9 -9 -9 -9 -10 -9 -11 -12 -12 -12 -12 -10 -10 -10 -10 -11 -11 -11 -12 -12 -12 -12 -12 -11 -11 -11 -11 -11 -11 -11 -11 -11 -11 -11 -11 -11 -11 -11 -11 -11 -11 -11 -11 -11 -11 -10 -10 -10 -10
-9 -9 -9 -10 -10 -11 -12 -12 -12 -12 -11 -10 -10 -10 -11 -11 -11 -11 -12 -12 -12 -12 -11 -11 -11 -11 -11 -11 -11 -11 -11 -11 -11 -11 -11 -11 -11 -11 -11 -11 -11 -11 -11 -11 -11 -11 -11 -10 -10
-9 -9 -9 -10 -11 -10 -13 -13 -13 -12 -12 -11 -10 -10 -11 -11 -11 -11 -12 -12 -12 -12 -11 -11 -11 -11 -11 -11 -11 -11 -11 -11 -11 -11 -11 -11 -11 -11 -11 -11 -11 -11 -11 -11 -11 -11 -10 -10 -10
-9 -8 -9 -11 -10 -10 -11 -13 -13 -12 -11 -11 -11 -11 -11 -11 -11 -11 -11 -11 -11 -11 -11 -11 -11 -11 -11 -11 -11 -11 -11 -11 -11 -11 -11 -12 -11 -11 -11 -11 -11 -11 -11 -11 -11 -11 -11 -11 -11
-9 -9 -9 -10 -11 -10 -10 -11 -11 -12 -11 -12 -11 -11 -11 -11 -11 -11 -11 -11 -11 -11 -11 -11 -11 -11 -11 -11 -11 -11 -11 -12 -12 -12 -12 -12 -12 -12 -12 -12 -12 -11 -11 -11 -11 -11 -11 -10 -11
-8 -9 -9 -10 -10 -10 -9 -11 -12 -11 -11 -11 -11 -11 -11 -11 -11 -11 -11 -11 -11 -11 -11 -11 -11 -11 -11 -11 -11 -11 -12 -12 -12 -12 -12 -12 -12 -12 -12 -12 -12 -11 -11 -12 -12 -12 -12 -12 -12
-9 -10 -9 -9 -10 -10 -9 -10 -11 -12 -11 -11 -11 -10 -11 -12 -12 -12 -11 -11 -11 -11 -11 -11 -11 -11 -11 -11 -12 -12 -12 -12 -12 -12 -12 -12 -12 -12 -12 -12 -12 -13 -13 -13 -13 -13 -13 -13 -13
-10 -9 -9 -10 -10 -10 -10 -10 -10 -11 -11 -11 -11 -10 -11 -12 -11 -11 -12 -12 -12 -12 -12 -12 -11 -11 -12 -12 -12 -12 -12 -12 -12 -12 -12 -12 -13 -13 -13 -13 -13 -13 -13 -13 -13 -13 -13 -13 -12
-10 -10 -10 -10 -10 -10 -11 -10 -10 -11 -11 -10 -11 -11 -11 -11 -11 -11 -11 -12 -12 -12 -12 -12 -12 -12 -12 -12 -12 -12 -12 -12 -12 -13 -13 -13 -13 -13 -13 -13 -13 -13 -13 -12 -12 -13 -13 -13 -13
-10 -10 -10 -11 -11 -11 -11 -10 -11 -12 -12 -10 -10 -10 -11 -11 -11 -11 -11 -11 -12 -12 -12 -12 -13 -13 -13 -13 -13 -12 -12 -13 -13 -13 -13 -13 -13 -13 -13 -13 -13 -12 -13 -13 -13 -13 -13 -14 -14
-10 -10 -11 -11 -12 -11 -11 -10 -11 -12 -12 -12 -10 -10 -11 -12 -11 -11 -11 -11 -12 -12 -13 -13 -13 -13 -13 -13 -13 -13 -13 -13 -13 -13 -13 -13 -13 -13 -13 -13 -13 -13 -13 -13 -14 -14 -14 -15 -15
-11 -11 -11 -11 -12 -12 -12 -10 -11 -11 -12 -13 -11 -11 -11 -11 -12 -11 -12 -12 -12 -13 -13 -13 -13 -13 -13 -13 -13 -13 -14 -14 -13 -13 -14 -14 -14 -13 -13 -13 -14 -14 -14 -15 -15 -15 -15 -15 -16
-11 -11 -11 -11 -11 -11 -11 -10 -11 -13 -12 -11 -12 -12 -11 -11 -11 -11 -12 -12 -12 -13 -14 -14 -14 -14 -14 -14 -14 -13 -14 -14 -14 -15 -15 -15 -15 -15 -15 -15 -15 -15 -16 -16 -16 -16 -16 -16 -17
-12 -12 -11 -11 -12 -13 -12 -11 -12 -13 -13 -12 -12 -12 -12 -12 -11 -11 -12 -12 -12 -13 -14 -14 -14 -14 -14 -14 -14 -15 -15 -14 -15 -15 -15 -15 -15 -16 -16 -16 -16 -16 -16 -16 -16 -17 -17 -17 -17
-11 -12 -12 -12 -12 -12 -13 -10 -12 -13 -13 -13 -13 -13 -13 -12 -12 -12 -12 -13 -13 -13 -14 -14 -14 -14 -15 -15 -15 -15 -15 -16 -16 -16 -16 -16 -16 -16 -17 -17 -17 -17 -17 -17 -18 -18 -18 -18 -18
-11 -13 -13 -13 -13 -12 -13 -12 -11 -12 -13 -14 -14 -14 -14 -13 -12 -11 -12 -13 -14 -14 -14 -15 -15 -15 -15 -15 -15 -15 -15 -15 -16 -16 -17 -17 -17 -18 -18 -18 -18 -18 -18 -18 -19 -19 -19 -19 -19
-10 -13 -14 -14 -14 -13 -12 -14 -9 -11 -12 -13 -14 -14 -14 -13 -12 -12 -12 -13 -14 -14 -14 -15 -15 -15 -15 -15 -15 -14 -15 -16 -17 -17 -17 -18 -18 -18 -19 -19 -19 -19 -19 -19 -19 -20 -19 -19 -19
-13 -13 -14 -14 -14 -13 -10 -14 -11 -12 -12 -14 -14 -14 -14 -14 -13 -13 -13 -13 -14 -14 -15 -15 -15 -15 -15 -15 -15 -15 -16 -17 -17 -17 -18 -18 -19 -19 -19 -19 -19 -19 -20 -19 -20 -20 -20 -20 -20
-14 -14 -14 -14 -14 -12 -13 -14 -11 -12 -13 -14 -13 -14 -14 -15 -14 -13 -14 -14 -15 -15 -15 -15 -16 -16 -15 -16 -16 -16 -17 -17 -18 -18 -18 -19 -19 -19 -20 -20 -20 -20 -20 -20 -20 -20 -20 -20 -21
-14 -15 -15 -15 -15 -14 -14 -13 -12 -14 -14 -14 -14 -14 -14 -15 -15 -15 -15 -15 -15 -15 -15 -16 -16 -17 -17 -17 -17 -17 -17 -18 -18 -18 -19 -20 -20 -20 -20 -20 -20 -20 -20 -21 -21 -21 -21 -21 -22
-13 -15 -15 -16 -15 -15 -13 -13 -13 -14 -15 -15 -14 -15 -15 -15 -15 -15 -15 -15 -15 -15 -16 -17 -17 -17 -17 -17 -18 -18 -18 -18 -19 -20 -20 -20 -20 -20 -20 -21 -21 -21 -21 -21 -21 -21 -22 -22 -23
-15 -15 -15 -15 -15 -15 -14 -14 -14 -16 -16 -15 -15 -16 -15 -15 -15 -15 -16 -16 -16 -16 -17 -17 -17 -18 -18 -19 -19 -19 -19 -19 -20 -20 -20 -20 -21 -21 -21 -21 -21 -21 -21 -22 -22 -22 -22 -23 -23
-16 -16 -16 -16 -16 -16 -15 -15 -15 -16 -16 -16 -16 -16 -16 -16 -15 -15 -16 -16 -16 -16 -17 -17 -18 -18 -19 -19 -19 -19 -20 -20 -20 -20 -20 -21 -21 -21 -21 -21 -22 -22 -22 -22 -22 -22 -23 -23 -23
-16 -16 -16 -15 -16 -16 -16 -15 -16 -17 -17 -16 -16 -16 -16 -16 -17 -16 -16 -16 -17 -17 -18 -18 -19 -19 -20 -19 -20 -20 -20 -20 -21 -21 -21 -22 -21 -21 -21 -22 -22 -22 -22 -22 -22 -23 -23 -23 -23
Height
5850 5848 5847 5846 5849 5847 5850 5849 5842 5841 5840 5842 5847 5851 5853 5853 5850 5848 5846 5847 5847 5847 5847 5847 5847 5847 5848 5849 5849 5849 5849 5848 5848 5847 5846 5846 5846 5845 5845 5844 5843 5842 5842 5842 5840 5840 5840 5840 5840
5844 5843 5842 5840 5844 5844 5846 5842 5837 5839 5840 5839 5842 5846 5848 5846 5845 5841 5842 5842 5842 5843 5842 5843 5843 5844 5844 5845 5845 5845 5844 5844 5843 5842 5841 5842 5842 5842 5841 5841 5840 5839 5838 5837 5837 5837 5837 5837 5837
5839 5837 5838 5837 5838 5841 5841 5837 5833 5836 5837 5836 5838 5838 5841 5841 5838 5837 5836 5837 5837 5838 5839 5839 5840 5840 5840 5840 5840 5840 5840 5840 5839 5839 5838 5839 5839 5838 5837 5836 5835 5834 5833 5833 5832 5833 5833 5833 5833
5834 5833 5833 5834 5835 5837 5838 5833 5829 5829 5831 5830 5833 5834 5834 5835 5830 5831 5832 5833 5833 5833 5835 5835 5836 5836 5836 5836 5836 5835 5835 5835 5835 5835 5834 5834 5833 5833 5832 5830 5830 5829 5829 5829 5829 5829 5829 5829 5829
5828 5827 5828 5828 5832 5830 5832 5832 5829 5824 5824 5823 5824 5829 5827 5826 5825 5825 5827 5827 5828 5829 5830 5830 5830 5831 5831 5831 5830 5830 5829 5829 5829 5829 5829 5828 5827 5826 5826 5825 5825 5824 5824 5824 5824 5824 5824 5824 5824
5823 5821 5825 5825 5826 5825 5823 5822 5827 5826 5817 5819 5820 5823 5821 5819 5819 5820 5822 5822 5823 5824 5824 5825 5825 5825 5824 5825 5825 5824 5824 5824 5824 5824 5824 5823 5822 5821 5820 5820 5820 5820 5819 5819 5819 5818 5818 5818 5818
5818 5818 5820 5820 5824 5823 5821 5821 5822 5820 5815 5812 5812 5816 5817 5816 5815 5815 5818 5819 5820 5821 5821 5821 5820 5820 5819 5819 5819 5819 5819 5819 5819 5818 5818 5817 5817 5816 5815 5815 5814 5813 5813 5812 5812 5811 5811 5811 5810
5812 5812 5814 5814 5817 5819 5815 5814 5816 5814 5810 5807 5808 5813 5814 5813 5811 5812 5814 5816 5816 5816 5817 5816 5815 5815 5815 5814 5815 5815 5815 5815 5815 5815 5814 5813 5812 5811 5810 5809 5808 5807 5806 5805 5805 5806 5805 5804 5803
5806 5807 5810 5810 5809 5811 5811 5810 5808 5809 5803 5801 5803 5808 5810 5807 5806 5808 5809 5811 5812 5812 5812 5812 5811 5812 5811 5811 5812 5812 5811 5811 5810 5809 5808 5807 5806 5806 5804 5803 5802 5801 5801 5799 5799 5798 5797 5796 5795
5801 5801 5804 5804 5804 5804 5805 5804 5803 5801 5797 5799 5800 5803 5804 5802 5803 5805 5805 5805 5808 5808 5808 5808 5806 5808 5807 5808 5808 5807 5806 5806 5805 5805 5804 5803 5801 5800 5799 5797 5796 5794 5793 5792 5791 5790 5789 5788 5786
5798 5799 5797 5799 5798 5798 5802 5799 5798 5795 5791 5792 5795 5796 5796 5797 5799 5801 5802 5802 5802 5803 5804 5804 5803 5803 5803 5804 5803 5802 5801 5801 5800 5799 5798 5796 5795 5793 5792 5790 5788 5786 5785 5783 5782 5781 5780 5779 5777
5793 5792 5790 5793 5792 5792 5796 5798 5791 5789 5788 5782 5790 5792 5791 5792 5794 5795 5796 5798 5799 5798 5799 5798 5799 5799 5799 5799 5799 5798 5797 5794 5794 5793 5791 5789 5788 5786 5784 5781 5779 5778 5777 5776 5775 5773 5770 5767 5764
5788 5788 5784 5784 5787 5786 5788 5792 5789 5787 5783 5779 5782 5785 5786 5786 5786 5787 5790 5793 5793 5794 5793 5793 5793 5793 5794 5793 5793 5792 5790 5789 5787 5786 5784 5783 5781 5780 5777 5775 5772 5771 5769 5767 5764 5761 5758 5754 5752
5782 5781 5781 5779 5780 5779 5780 5783 5783 5785 5777 5777 5777 5781 5781 5780 5781 5780 5782 5786 5788 5788 5788 5788 5788 5788 5787 5786 5785 5784 5783 5781 5780 5779 5778 5777 5774 5772 5769 5765 5762 5760 5757 5754 5751 5748 5745 5742 5738
5773 5774 5775 5776 5775 5774 5774 5773 5778 5780 5771 5769 5773 5776 5775 5774 5775 5775 5780 5781 5781 5781 5780 5779 5779 5779 5778 5777 5776 5775 5775 5774 5773 5772 5770 5767 5764 5760 5757 5754 5752 5749 5746 5741 5739 5736 5733 5729 5725
5767 5766 5768 5773 5769 5771 5767 5768 5773 5772 5768 5764 5767 5770 5771 5770 5770 5767 5773 5777 5778 5776 5774 5772 5771 5770 5769 5768 5767 5766 5765 5765 5763 5761 5758 5755 5752 5749 5745 5742 5739 5736 5733 5730 5727 5724 5721 5716 5711
5762 5760 5759 5762 5761 5762 5760 5760 5767 5763 5760 5759 5760 5762 5763 5764 5763 5763 5765 5768 5769 5769 5766 5764 5762 5761 5760 5760 5758 5757 5757 5756 5752 5750 5747 5744 5741 5738 5734 5731 5727 5724 5721 5717 5714 5711 5708 5703 5697
5754 5750 5751 5753 5755 5752 5750 5750 5752 5756 5755 5752 5749 5754 5754 5755 5758 5757 5758 5760 5760 5760 5757 5755 5752 5751 5751 5750 5749 5748 5747 5745 5743 5740 5737 5733 5730 5727 5723 5720 5716 5713 5708 5704 5700 5697 5695 5691 5684
5741 5742 5742 5743 5745 5745 5743 5743 5742 5743 5742 5744 5744 5743 5745 5746 5745 5747 5749 5750 5750 5750 5749 5745 5743 5742 5741 5741 5740 5740 5738 5735 5732 5729 5725 5721 5717 5713 5711 5708 5704 5700 5695 5691 5686 5682 5679 5677 5672
5732 5732 5733 5736 5739 5735 5733 5736 5735 5734 5733 5733 5733 5733 5735 5735 5733 5734 5738 5740 5741 5740 5739 5736 5734 5733 5731 5731 5730 5728 5726 5724 5721 5718 5714 5710 5707 5703 5699 5695 5691 5687 5682 5679 5674 5668 5664 5662 5659
5724 5722 5724 5725 5726 5728 5725 5725 5726 5727 5726 5724 5722 5725 5723 5723 5724 5726 5728 5729 5729 5729 5730 5728 5725 5723 5722 5722 5719 5719 5716 5714 5711 5706 5702 5698 5694 5692 5688 5683 5679 5674 5669 5665 5660 5656 5651 5647 5644
5715 5714 5714 5715 5714 5714 5715 5712 5718 5718 5717 5716 5715 5715 5713 5712 5713 5713 5719 5719 5718 5719 5718 5716 5714 5713 5712 5710 5708 5706 5704 5702 5699 5694 5690 5687 5682 5680 5675 5671 5667 5662 5657 5652 5648 5643 5639 5634 5629
5705 5702 5701 5701 5702 5702 5703 5698 5707 5709 5708 5707 5705 5704 5701 5702 5704 5703 5706 5708 5706 5706 5708 5707 5705 5703 5701 5697 5696 5694 5691 5690 5685 5683 5679 5675 5671 5668 5664 5660 5656 5651 5647 5642 5638 5633 5627 5622 5616
5691 5689 5689 5689 5688 5688 5696 5688 5697 5696 5696 5692 5693 5692 5690 5690 5695 5696 5696 5697 5696 5696 5697 5698 5696 5692 5690 5688 5684 5682 5680 5676 5673 5671 5668 5665 5659 5656 5653 5650 5646 5641 5637 5632 5627 5623 5617 5611 5605
5680 5679 5678 5675 5671 5676 5683 5678 5683 5684 5681 5678 5680 5684 5683 5680 5683 5684 5685 5687 5688 5687 5686 5685 5684 5680 5678 5675 5672 5670 5667 5664 5661 5659 5657 5654 5651 5646 5643 5640 5636 5631 5627 5622 5617 5613 5607 5602 5594
5669 5665 5663 5658 5662 5668 5672 5662 5672 5668 5666 5666 5667 5668 5668 5670 5671 5673 5674 5675 5675 5674 5674 5673 5671 5668 5666 5663 5660 5657 5654 5651 5648 5647 5647 5646 5642 5637 5634 5630 5626 5621 5618 5613 5607 5603 5597 5591 5584
5662 5652 5657 5650 5652 5650 5659 5656 5659 5652 5649 5648 5652 5651 5652 5653 5658 5660 5661 5662 5661 5661 5661 5660 5659 5658 5654 5652 5649 5646 5644 5641 5640 5637 5637 5635 5631 5627 5625 5620 5616 5612 5609 5604 5598 5593 5588 5582 5575
5645 5646 5642 5637 5635 5637 5641 5646 5647 5646 5641 5642 5644 5646 5638 5644 5647 5648 5649 5649 5649 5649 5648 5648 5645 5643 5640 5637 5636 5634 5631 5629 5630 5628 5625 5624 5621 5619 5615 5611 5606 5603 5600 5596 5589 5585 5580 5574 5568
5632 5632 5634 5632 5628 5629 5628 5640 5635 5632 5630 5628 5633 5634 5633 5626 5636 5635 5635 5635 5637 5636 5635 5634 5632 5630 5628 5625 5624 5623 5622 5620 5619 5617 5615 5614 5613 5609 5604 5601 5597 5595 5592 5587 5581 5577 5572 5566 5562
5616 5615 5617 5616 5613 5616 5615 5625 5625 5623 5619 5615 5623 5621 5618 5613 5610 5619 5619 5621 5622 5622 5621 5621 5619 5617 5615 5613 5612 5612 5612 5610 5608 5608 5607 5604 5602 5599 5595 5593 5590 5586 5583 5579 5574 5569 5564 5560 5556
Wind_Speed
22 24 26 27 25 24 15 12 11 23 21 23 30 34 37 41 34 36 36 35 35 35 35 27 24 24 24 23 23 23 25 26 26 24 24 23 23 22 22 20 17 16 16 17 16 16 16 16 15
22 24 28 29 23 23 8 19 23 20 22 28 34 34 34 29 31 36 34 32 31 28 25 24 22 21 22 24 25 25 26 27 26 24 23 23 22 22 21 20 19 19 19 19 19 19 19 19 18
21 24 27 27 22 17 11 20 12 27 29 35 37 35 34 29 31 30 30 31 27 25 22 20 20 21 23 25 26 26 27 25 22 24 22 21 21 20 19 19 21 21 21 21 20 20 19 19 19
19 22 25 23 21 15 16 20 19 31 34 35 35 34 33 32 32 28 25 24 21 18 16 18 21 24 25 26 27 27 25 25 26 25 22 20 20 20 20 20 21 22 22 22 21 20 20 21 22
19 22 21 19 16 12 11 13 27 37 38 34 35 33 33 31 27 23 19 17 16 17 19 22 23 25 26 28 26 25 23 22 21 21 21 21 21 22 22 21 21 21 21 20 20 20 21 22 24
19 22 18 15 16 21 16 15 25 35 45 37 38 30 22 27 22 20 17 16 18 20 23 25 27 27 27 25 24 20 17 17 18 20 21 22 22 21 20 20 21 21 23 24 24 24 24 25 26
18 21 16 15 16 16 7 17 25 33 40 40 35 30 24 23 21 19 17 19 21 23 23 24 23 22 21 20 19 18 17 18 20 21 22 21 21 23 24 24 25 25 26 26 28 27 28 29 30
17 21 16 11 13 16 22 17 27 37 42 38 35 24 21 18 20 20 20 22 23 22 21 18 18 17 18 16 15 16 18 20 22 22 23 24 25 26 26 27 27 28 28 29 29 30 30 30 31
18 20 12 11 18 22 15 21 30 38 43 34 32 22 19 23 23 24 23 23 23 22 18 17 18 16 16 17 18 20 21 22 23 24 24 25 26 26 27 27 29 29 30 30 31 32 33 35 36
21 21 11 16 24 27 28 30 34 36 37 34 33 22 21 24 24 24 25 22 22 22 20 19 20 18 18 19 21 22 23 24 25 24 24 25 26 26 27 28 30 32 34 35 36 38 40 40 39
23 19 15 13 24 29 31 36 39 44 42 37 30 24 22 23 25 25 24 25 22 21 20 20 21 21 22 22 24 25 24 24 25 27 28 29 29 30 32 33 35 37 38 39 40 41 41 42 44
27 23 19 13 21 29 24 28 44 42 40 41 26 22 24 22 23 26 27 24 23 22 21 22 22 24 25 25 25 24 25 29 31 32 32 33 34 35 37 38 40 40 42 43 43 43 44 45 46
29 27 28 19 19 25 25 22 35 43 38 39 32 22 17 22 25 28 28 24 22 22 22 23 25 26 25 25 26 28 29 31 34 35 37 37 38 40 42 42 43 44 44 45 46 46 48 49 52
29 31 28 23 20 24 23 22 30 30 37 36 35 24 22 24 28 28 25 21 21 22 23 26 27 27 26 27 28 30 32 33 35 37 39 41 41 42 44 46 47 47 49 50 52 53 54 55 56
30 31 29 28 23 25 25 26 22 27 39 41 34 29 26 27 29 31 27 23 21 23 26 27 28 27 28 30 32 33 33 34 37 40 42 42 44 46 50 52 53 53 55 56 57 57 57 57 57
36 31 30 22 28 22 30 29 20 25 35 42 38 32 30 31 31 33 28 25 25 26 28 29 29 29 30 31 32 33 34 36 43 46 45 47 49 52 54 56 56 58 60 61 61 60 60 59 59
34 34 33 29 25 25 30 32 22 30 33 39 38 33 33 30 32 33 30 29 30 30 29 30 31 32 32 32 34 35 40 45 45 47 49 51 54 56 57 58 60 62 63 64 64 64 62 56 56
34 38 38 38 28 27 29 37 36 30 33 34 40 32 32 35 33 36 37 36 35 33 32 33 35 35 35 36 40 46 43 44 47 49 51 53 55 56 57 60 61 64 62 61 60 59 58 54 54
38 39 40 41 37 34 37 37 37 36 39 33 35 40 36 35 38 36 37 38 35 33 33 35 35 38 41 44 42 41 44 48 48 50 51 53 55 57 58 59 60 61 58 55 53 53 53 53 53
39 42 42 42 37 38 39 39 37 40 46 44 41 41 39 39 42 41 37 37 37 37 35 40 43 43 43 43 44 47 47 47 48 49 52 57 58 58 58 57 56 55 55 54 54 54 54 52 53
39 42 44 45 44 44 41 48 42 44 46 50 50 43 44 44 46 45 38 32 35 37 37 38 41 45 44 42 44 46 47 47 49 51 54 56 58 59 57 54 53 53 53 55 55 54 53 55 54
41 41 43 47 51 55 51 55 50 47 49 51 52 46 47 49 51 52 40 32 38 40 40 37 37 37 42 46 47 48 50 50 52 55 57 57 58 57 55 53 53 53 55 54 53 51 51 51 49
41 42 45 46 49 55 55 59 47 52 54 50 48 48 42 47 46 44 43 43 36 37 37 38 39 42 47 51 51 53 53 52 52 55 57 59 58 56 52 51 53 54 54 53 51 49 48 47 48
41 43 48 50 54 58 47 55 47 44 41 44 44 41 48 49 45 43 44 45 40 41 43 41 45 48 53 52 55 55 53 53 54 56 58 59 57 54 48 50 51 53 51 48 48 48 46 46 48
41 44 47 52 57 55 49 51 51 48 50 51 51 46 44 46 48 46 42 42 44 46 46 47 49 56 51 49 52 52 52 54 56 58 59 58 54 46 47 50 50 50 47 46 46 45 45 45 43
42 45 51 53 52 51 48 56 49 49 51 50 46 46 48 46 41 42 44 46 51 52 51 50 50 46 50 49 46 48 51 54 57 58 58 52 41 44 48 49 48 46 44 44 43 43 42 41 40
44 50 47 47 49 52 52 52 49 52 48 43 36 43 51 46 44 50 51 52 55 51 52 49 46 53 56 47 45 47 50 54 57 55 47 38 42 45 47 45 45 45 43 41 42 41 39 38 36
47 41 44 50 48 50 49 43 44 44 47 50 53 46 46 45 43 42 46 52 55 51 44 48 54 51 44 40 43 46 51 55 51 42 36 40 42 44 44 43 43 43 39 39 39 39 37 35 33
49 54 55 57 51 50 45 48 34 36 48 54 44 47 51 55 52 55 44 42 46 51 56 55 49 48 46 43 45 48 54 52 43 34 39 40 41 42 42 42 40 38 37 38 36 36 34 33 33
53 56 52 50 49 55 42 38 48 56 59 54 53 47 48 57 63 55 58 59 63 53 52 52 53 48 42 41 42 48 51 39 34 36 37 39 40 41 41 40 36 35 35 37 35 34 31 32 33
Wind_Direction
276 275 276 276 278 284 300 235 249 213 255 242 246 245 255 265 260 263 269 275 273 271 274 260 249 247 252 257 257 262 268 278 287 290 275 271 271 270 273 275 276 279 281 279 278 276 273 275 280
276 275 276 277 285 288 271 249 259 289 251 259 256 253 267 275 269 265 264 263 265 268 258 253 257 257 256 255 257 264 273 286 291 289 274 271 273 276 280 283 284 280 279 278 277 275 274 275 279
282 278 280 279 281 284 212 243 291 279 270 257 259 270 274 276 270 266 262 260 263 260 265 270 270 263 262 260 263 269 283 283 284 292 279 273 279 280 281 281 282 281 283 289 289 287 285 281 286
281 281 279 280 281 279 217 255 293 275 274 275 280 281 280 277 271 268 263 258 256 259 266 271 266 259 261 262 271 275 280 274 282 282 276 277 279 281 282 282 283 287 291 295 294 290 289 288 291
291 286 278 278 277 240 158 289 281 277 276 282 279 286 279 275 270 262 250 249 255 264 266 264 262 262 264 269 271 274 275 271 272 271 275 278 280 281 283 285 286 288 289 291 293 292 289 288 289
294 290 285 271 250 240 235 317 285 271 278 276 285 276 284 275 266 253 245 249 258 260 260 261 262 261 262 264 264 267 267 263 270 275 278 280 282 284 287 289 289 290 291 291 291 290 289 287 286
290 284 281 277 275 277 204 281 281 277 276 285 292 289 290 271 266 250 244 253 256 259 262 268 268 264 258 258 261 265 267 272 275 276 279 283 285 285 288 288 288 289 290 290 290 290 287 287 286
285 283 284 276 263 213 214 275 290 280 275 280 285 294 289 272 264 254 251 250 252 256 262 263 265 262 265 263 260 268 276 279 283 286 287 288 290 289 288 289 288 289 289 289 288 288 289 288 289
279 277 281 258 251 236 262 268 263 268 275 280 281 287 268 263 257 252 251 253 255 261 265 267 267 265 263 263 266 272 277 280 280 279 281 283 282 284 287 288 288 288 287 287 287 288 289 288 287
275 277 268 253 262 262 250 251 251 256 270 279 280 277 262 265 266 260 255 255 261 268 270 269 268 270 269 270 272 274 275 277 279 282 284 284 285 286 287 288 289 289 290 288 286 285 285 286 285
272 275 257 254 267 276 280 260 255 258 271 277 270 264 260 262 265 264 263 262 262 264 266 265 269 270 269 271 275 280 283 284 286 286 286 288 289 289 288 288 287 286 284 283 284 284 283 281 282
276 274 265 240 264 278 288 282 264 270 269 269 266 258 267 270 266 262 258 261 266 268 269 267 268 271 278 284 285 287 291 293 296 297 296 295 294 293 293 291 288 286 286 287 286 286 285 288 290
282 276 269 256 252 276 284 269 259 261 274 271 265 254 251 262 259 257 260 267 270 270 269 268 269 274 280 280 286 293 297 298 299 300 299 297 295 292 290 289 288 290 294 296 296 296 295 294 296
272 274 276 268 259 260 274 271 275 271 268 267 269 261 256 255 260 260 259 261 261 266 269 273 276 281 282 286 293 296 299 299 297 294 292 291 292 295 298 301 303 304 303 302 301 300 300 299 298
272 274 273 274 270 270 276 269 282 265 272 270 265 267 261 259 265 269 269 261 257 260 266 270 276 282 285 287 290 291 292 294 292 293 294 297 301 303 304 305 305 304 303 303 302 301 299 299 299
272 270 273 270 268 272 272 279 268 259 260 273 275 272 269 268 266 265 270 270 269 269 273 277 280 283 284 285 286 286 288 292 297 298 300 302 303 304 303 302 304 305 304 303 301 300 301 301 300
278 274 267 259 262 266 268 274 263 256 256 266 273 271 271 263 265 268 267 266 271 275 277 280 282 282 283 284 285 289 294 296 295 298 300 299 299 300 301 304 304 302 301 300 300 299 300 300 298
271 268 269 267 255 258 266 270 275 257 257 265 274 272 267 267 263 268 270 272 275 279 279 277 276 281 283 286 288 290 290 290 292 294 296 297 298 299 299 299 301 299 299 299 299 298 297 296 293
265 266 267 267 272 265 261 267 274 275 276 268 265 274 275 273 269 264 269 273 274 276 277 278 277 277 280 283 284 285 292 291 291 292 293 294 295 295 296 300 298 296 296 295 294 294 294 293 292
268 266 267 268 267 262 263 266 261 261 266 272 272 274 273 271 272 273 272 273 274 274 272 273 277 281 281 284 288 286 285 288 291 293 293 292 293 296 300 297 295 293 293 292 291 293 293 291 289
274 272 272 273 268 259 257 264 260 264 267 270 272 277 274 272 273 274 274 270 271 272 272 275 275 274 280 285 283 287 291 293 292 291 290 291 295 297 296 293 290 291 292 292 294 294 295 297 298
272 264 265 266 265 269 265 260 258 258 260 261 268 267 270 274 273 276 278 274 283 281 278 275 277 284 290 287 290 293 293 293 291 289 289 290 291 292 292 290 292 294 293 295 296 299 299 298 297
273 265 263 262 262 264 267 270 276 272 267 266 265 262 257 268 275 275 283 286 281 286 284 287 279 289 288 290 292 292 291 289 287 288 287 287 288 289 289 292 295 295 297 300 300 299 299 298 297
262 263 266 268 266 267 277 274 280 278 276 268 268 270 270 272 271 274 279 282 277 276 282 284 288 289 289 290 287 286 288 287 285 285 284 286 287 289 292 295 297 297 300 298 297 299 299 298 296
263 263 261 259 260 272 281 277 283 279 278 277 270 269 266 265 279 280 279 275 273 273 279 280 286 289 285 286 287 287 286 284 283 283 284 286 288 290 293 294 295 298 297 297 298 297 298 298 301
266 265 261 261 264 271 270 270 282 279 272 273 275 275 271 273 264 258 263 264 263 270 276 276 283 279 288 291 287 283 280 278 278 281 285 285 287 291 292 294 297 296 295 295 296 296 301 303 310
270 264 268 266 268 268 274 276 282 279 275 272 262 271 273 273 277 266 258 259 262 266 272 278 280 288 290 288 284 280 277 277 277 280 282 286 290 290 292 296 294 292 293 293 296 300 304 311 313
267 267 247 260 260 275 264 273 276 260 263 269 268 261 259 256 264 259 258 266 272 281 276 276 291 289 288 280 276 277 276 276 276 278 284 287 288 292 295 294 293 292 290 293 300 303 307 315 312
266 258 257 257 255 262 253 265 257 270 264 264 263 262 262 266 261 258 262 266 272 272 277 287 287 288 288 283 279 278 275 271 275 280 282 286 287 294 296 294 293 288 290 296 302 303 309 317 310
258 247 249 239 240 254 255 256 259 267 263 261 266 253 253 267 276 255 261 267 282 278 275 279 284 286 279 280 277 279 268 269 273 275 281 286 294 297 294 292 289 288 293 299 302 304 310 313 307